Regional Weather Roundup
Issued by NWS

Home | Current Version | Previous Version | Text Only | Print | Product List | Glossary On
Versions: 1 2 3 4 5 6 7 8 9 10 11 12 13 14 15 16 17 18 19 20 21 22 23 24 25 26 27 28 29 30 31 32 33 34 35 36 37 38 39 40 41 42 43 44 45 46 47 48 49 50
207
ASUS43 KOAX 191710
RWRNE

WEATHER ROUNDUP FOR NEBRASKA
NATIONAL WEATHER SERVICE OMAHA NE
1100 AM CST SUN FEB 19 2017

NOTES: SATELLITE DATA IS BEING USED TO AUGMENT CLOUD COVER ABOVE
       12000 FEET.
       "FAIR" INDICATES FEW OR NO CLOUDS BELOW 12,000 FEET WITH NO
       SIGNIFICANT WEATHER AND/OR OBSTRUCTIONS TO VISIBILITY.

  * THESE STATIONS DO NOT REPORT WEATHER SUCH AS RAIN...SNOW OR FOG.

NEZ001>004-019>022-054>056-191800-
NEBRASKA PANHANDLE

CITY           SKY/WX    TMP DP  RH WIND       PRES   REMARKS
SCOTTSBLUFF    CLOUDY    44  30  57 CALM      29.67S
ALLIANCE       CLOUDY    46  31  55 SW6       29.65S
CHADRON        SUNNY     58  35  42 W3        29.59F
KIMBALL        CLOUDY    51  35  54 SW3       29.70R
SIDNEY         CLOUDY    53  32  44 VRB3      29.68S
$$

NEZ057>060-069>072-079>082-191800-
SOUTHWEST NEBRASKA

CITY           SKY/WX    TMP DP  RH WIND       PRES   REMARKS
NORTH PLATTE   MOSUNNY   57  43  59 S10       29.72F
IMPERIAL       CLOUDY    52  36  54 S10       29.72S
LEXINGTON      PTSUNNY   56  47  72 S13       29.76S
MCCOOK         MOSUNNY   54  46  74 S13       29.75S
OGALLALA       CLOUDY    55  36  49 S10       29.69S
$$

NEZ005>010-023>029-035>040-094-191800-
NORTH CENTRAL NEBRASKA

CITY           SKY/WX    TMP DP  RH WIND       PRES   REMARKS
VALENTINE      MOSUNNY   54  36  50 SW15      29.64S
AINSWORTH      MOSUNNY   56  42  60 S24       29.65F
BROKEN BOW     MOSUNNY   56  47  71 S20G28    29.72F
O`NEILL        MOSUNNY   62  45  53 S18G25    29.71F
ORD            PTSUNNY   57  47  69 S24       29.74S
THEDFORD       MOSUNNY   56  40  55 S13G23    29.69S
$$

NEZ041-046>049-061>064-073>077-083>087-191800-
SOUTH CENTRAL NEBRASKA

CITY           SKY/WX    TMP DP  RH WIND       PRES   REMARKS
GRAND ISLAND   MOSUNNY   58  51  78 S16       29.81S
AURORA         CLOUDY    58  51  78 S15G21    29.82S
HASTINGS       PTSUNNY   60  50  69 S16G24    29.82S
HEBRON         MOSUNNY   61  51  69 S13G20    29.86F
HOLDREGE       MOSUNNY   55  48  78 S16G23    29.78F
KEARNEY *      MOSUNNY   57  48  72 S17G26    29.79F
YORK           CLOUDY    57  50  77 S17       29.83F
$$

NEZ011>018-030>034-042>045-191800-
NORTHEAST NEBRASKA

CITY           SKY/WX    TMP DP  RH WIND       PRES   REMARKS
NORFOLK        CLOUDY    56  47  71 S15G21    29.80R
ALBION         CLOUDY    54  47  80 S9        29.79F
BLAIR          PTSUNNY   57  49  73 SE10      29.86F
FREMONT        PTSUNNY   58  48  70 SE10      29.86S
WAYNE          MOSUNNY   54  47  77 S15       29.81R
$$

NEZ050>053-065>068-078-088>093-191800-
SOUTHEAST NEBRASKA

CITY           SKY/WX    TMP DP  RH WIND       PRES   REMARKS
LINCOLN        MOSUNNY   63  50  62 S21       29.87F
OMAHA EPPLEY   CLOUDY    59  48  67 S17       29.88F
BEATRICE       CLOUDY    62  52  69 S15       29.89S
FALLS CITY     MOSUNNY   61  51  70 S14G22    29.93S
NEBRASKA CITY  MOSUNNY   60  47  60 S14       29.91F
PLATTSMOUTH    MOSUNNY   59  46  61 SE14      29.90S
$$

NEZ044-045-051>053-067-191800-
OMAHA AREA

CITY           SKY/WX    TMP DP  RH WIND       PRES   REMARKS
OMAHA EPPLEY   CLOUDY    59  48  67 S17       29.88F
BLAIR          PTSUNNY   57  49  73 SE10      29.86F
FREMONT        PTSUNNY   58  48  70 SE10      29.86S
MILLARD        PTSUNNY   61  51  69 SE12      29.88F
OFFUTT AFB     PTSUNNY   60  53  77 SE13      29.89F
PLATTSMOUTH    MOSUNNY   59  46  61 SE14      29.90S
WAHOO          FAIR      59  49  68 S16       29.86F
$$




USA.gov is the U.S. government's official web portal to all federal, state and local government web resources and services.